Timeline UpdatesTrip UpdatesNews PostsPvt PostsTravel TipsAdmin PostsConv PostsFollowed PostsChat RequestsBlog PostsPNR Posts

Disclaimer
Search
 
 
Wed Sep 17, 2014 21:07:22 ISTHomeTrainsΣChainsAtlasPNRForumGalleryNewsFAQTripsMembersLoginFeedback
No Recent News for this Train
Other Trains in the News **new
Latest...
ECoR TO CANCEL LOCAL PASSENGER TRAINS IN VIEW OF EXPECTED CYCLONE o­n 12th October 2013. The following trains are: 58417/58418 Puri-Gunupur-Puri passenger
Sat Oct 12, 2013 (09:31AM)
⇐ Return Journey: Train# 58417

58418/Gunupur-Puri Passenger (UnReserved)

Time-Table HAS CHANGED.
Sep 03 (10:06PM)
Change Departure Station:
Change Arrival Station:
Post a Train Travel TipPost a Train Travel Tip **new
Post a Comment/Question/Picture/VideoPost a Comment/Question/Picture/Video
Pantry/Catering
✕ NO Pantry Car
✕ NO Catering
Loco/Rake Reversals
KUR/Khurda Road Junction (7);
RSA - Rake Sharing
Rake/Coach Composition
This train will run with 08 coaches i.e. Two Guard cum luggage vans, 05 General Second Class coaches and One Parcel Van.
Loco
News    PNR    Forum    Time-Table    Availability    Fare Chart    Map    Arr/Dep History    Trips    Gallery    ΣChains    X/O    Timeline    
Travel Time: 5h 25m    26 halts    Distance: 208 km    Avg Speed: 38 km/hr
Type: Passenger
Zone: ECoR/East Coast
Departs @ 07:00
Platform# ???
SMTWTFS
Gunupur/GNPR 
Arrives @ 12:25
Platform# ???
SMTWTFS
Narasimhapura/NRSP 

26 halts. 26 intermediate Stations between Gunupur and Narasimhapura

Hide intermediate Stations  Show Old Time-Table

#CodeStation NameX/OArrivesAvgDepartsAvgHaltPFDay#KmSpeedElevZoneAddress
1GNPRGunupur»  -07:00---10.03892mECoRGunupur, Odisha
2PLSGPalasingi  07:10-07:11-1m--16.43687mECoRDistt Gajapati, Odisha
3BSDRBansadhara Halt  07:20-07:21-1m--111.73978mECoRBansadhara Halt Railway Station, Odisha
4LRILihuri Halt  07:32-07:33-1m--118.83769mECoRAcross River Vamsadhara, Odisha
5KNGRKashinagar Halt  07:44-07:45-1m--125.63962mECoRKashinagar, Odisha
6HBFHadobhangi Halt  07:58-07:59-1m--134.03268mECoRParalakhemundi, Odisha
7SPRMSitapuram Halt  08:07-08:08-1m--138.43458mECoRParalakhemundi, Odisha
8PLHParlakhemundi (1)  08:31 08:30-08:32-1 2m1150.82960mECoRParalakhemundi, Odisha
9PHMPatapatnam  08:41-08:42-1m--155.24568mECoRSrikakulam District, Andhra Pradesh
10GVAGanguwada  08:55-08:56-1m--165.03278mECoRGanguwada, Andhra Pradesh
11TMBTemburu  09:04-09:05-1m--169.44276mECoRParalakhemundi, Andhra Pradesh
12PDSNPeddasana  09:18-09:19-1m--178.43426mECoRNational Highway 5, Andhra Pradesh
13TEKTekkali Halt  09:28-09:29-1m--183.51936mECoRTekkali, Andhra Pradesh
14NWPNaupada JunctionX  09:50-10:00-10m--190.17213mECoRNuapada . ph.no. 08945-249728, Andhra Pradesh
15RMZRouthpuram HaltX  10:06-10:07-1m--197.36312mECoRSrikakulam, Andhra Pradesh
16PUNPundi  10:14 10:13-10:15-1 2m--1103.63738mECoRSrikakulam, Andhra Pradesh
17PSAPalasa (3)X  10:35-10:45-10m--1115.84931mECoRKasibugga, Andhra Pradesh
18SUDVSummadeviX  10:54 10:53-10:55 10:54-1m--1122.46558mECoRSummadevi, Andhra Pradesh
19MMSMandasa Road  11:02 11:00-11:03 11:01-1m--1128.98138mECoRSrikakulam, Andhra Pradesh
20BAVBaruva  11:11 11:08-11:12 11:09-1m--1138.37117mECoRSrikakulam, Andhra Pradesh
21SPTSompeta (4)X  11:20 11:17-11:21 11:19-1 2m--1147.76248mECoRKanchili, Andhra Pradesh
22JPIJhadupudiX  11:28 11:25-11:29 11:26-1m--1153.97138mECoRSrikakulam, Andhra Pradesh
23IPMIchchapuram  11:40 11:36-11:41 11:38-1 2m--1165.76321mECoRIchchapuram, Andhra Pradesh
24SLRDSurla Road  11:50 11:46-11:51 11:47-1m--1174.24018mECoRGanjam, Odisha
25GTAGolanthra  11:57 11:55-11:58 11:56-1m--1179.57128mECoRGanjam, Odisha
26BAMBrahmapur (3)X  12:10 12:05-12:15 12:10-5m11190.25827mECoRBerhampur, Odisha
27JNPJagan NathapurX  12:25 12:19-12:26 12:20-1m--1198.910829mECoRBerhampur, Odisha
28NRSPNarasimhapura•  12:32 12:25-12:33 12:26-1m--1207.93750mECoRGanjam, Odisha
29CAPChatrapur  12:40 12:32-12:41 12:34-1 2m--1211.61436mECoRChatrapur, Odisha
30CAPCChatrapur Court (2)  12:47 12:38-12:48 12:39-1m--1212.58032mECoRChatrapur, Odisha
31GAMGanjamXO  12:55 12:45-12:56 12:46-1m--1220.5428mECoRGanjam, Odisha
32HMAHumma  13:06 12:55-13:07 12:56-1m--1226.87419mECoRGanjam District, Odisha
33RBARambha  13:17 13:05-13:18 13:06-1m--1237.87514mECoRGanjam District, Odisha
34KITKhallikot (3)  13:28 13:15-13:29 13:16-1m--1249.05813mECoRKhallikot, Odisha
35KLJIKalijaiX  13:35 13:21-13:36 13:22-1m--1253.96211mECoRGarh, Odisha
36CLKAChilkaX  13:42 13:27-13:43 13:28-1m--1259.06225mECoRBarkul, Odisha
37BALUBalugaon (3)O  13:50 13:35-13:55 13:40-5m--1266.26711mECoR752030, Odisha
38SLZSolari  14:03 13:47-14:04 13:48-1m--1274.15118mECoRSolari, Odisha
39GNGDGangadharpur  14:11 13:54-14:12 13:55-1m--1279.25322mECoRKhordha, Odisha
40KUUKuhuri  14:21 14:04-14:22 14:05-1m--1287.25826mECoRKhordha, Odisha
41KAPGKalupara Ghat  14:30 14:12-14:31 14:13-1m--1293.95210mECoRChandeswar, Odisha
42MKTPMuketashwarX  14:36 14:18-14:37 14:19-1m--1298.38213mECoRKhordha, Odisha
43BSDPBhusandpur  14:43 14:23-14:44 14:24-1m--1303.86120mECoRBhushandapur, Odisha
44NKPNirakarpur  14:56 14:31-14:57 14:32-1m--1310.94821mECoRNirakarpur, Odisha
45GLBAGolabai  15:03 14:37-15:04 14:38-1m--1314.97213mECoRKhordha, Odisha
46TAPTapang  15:09 14:42-15:10 14:43-1m--1319.65815mECoRKhordha, Odisha
47DLMHDhaulimuhanX  15:15 14:47-15:16 14:48-1m--1323.56821mECoRKhordha, Odisha
48KPXRKaipadar Road  15:21 14:52-15:22 14:53-1m--1328.04822mECoRKaipada Road, Odisha
49ARGLArgul P.H.X  15:28 14:58-15:29 14:59-1m--1332.0424mECoRKhordha, Odisha
50KURKhurda Road Junction (7)X16:45 16:20-17:20 16:50-35 30m51337.32025mECoRKhordha, Odisha
51HPGMHaripur GramX  17:28 16:58-17:29 16:59-1m--1339.94622mECoRKhordha, Odisha
52MWQMotari HaltX  17:36 17:06-17:37 17:07-1m--1345.34212mECoRMotari, Odisha
53KASRKanas Road  17:42 17:12-17:43 17:13-1m--1348.8449mECoRKhordha, Odisha
54DEGDelang  17:48 17:18-17:49 17:19-1m--1352.5449mECoRKhordha, Odisha
55JERD new halt!!  17:24-17:25-1m--1356.134 ???
56BRSTBir PurushottampurX  18:00 17:30-18:01 17:31-1m--1359.06712mECoRSatasankha, Odisha
57SILSakhi Gopal (3)  18:11 17:36-18:12 17:37-1m--1364.66010mECoRPuri, Odisha
58JKDPJankidaipurX  18:18 17:43-18:19 17:44-1m--1370.63713mECoRChandanpur, Odisha
59MLTMalatipatpur (1)  18:24 17:49-18:25 17:50-1m11373.7615mECoRPuri, Odisha
60PURIPuri (5)  19:10----1381.0-12mECoRPuri, Odisha
Scroll to Top
Scroll to Bottom